レナード彗星

C/2022 K1 ( Leonard )

English version
Home page
Updated on December 11, 2022

---------------------------------------------------------------------

・ プロフィール

発見日 2022年5月30日
発見光度 19.7等
発見者 Gregory J. Leonard (Mt. Lemmon)

・ 軌道要素

Epoch 2022 Aug. 9.0 TT = JDT 2459800.5
T 2021 Dec. 17.37630 TT                                 Rudenko
q   3.9869257            (2000.0)            P               Q
z  -0.0006919      Peri.  142.64521     +0.26296495     +0.84691776
 +/-0.0000208      Node   136.29406     -0.96450283     +0.21876625
e   1.0027585      Incl.   41.97837     +0.02416046     -0.48463557
From 86 observations 2022 May 30-Sept. 25, mean residual 0".4.

・ 光度変化

        m1 = 10.5 + 5 logΔ + 10.0 log r

---------------------------------------------------------------------

軌道要素はM.P.E.C. 2022-S297に掲載されたものです。
光度グラフはComet for Windowsで作成したものです。

---------------------------------------------------------------------

Copyright(C) Seiichi Yoshida (comet@aerith.net). All rights reserved.